Vertical_Velocity
-2 -1 4 3 -3 -4 -6 -6 68 6 -7 -44 -34 29 10 10 0 13 5 -4 1 -4 -3 -1 1 0 1 1 -0 -2 -2 -2 1 -1 1 -3 3 0 -3 -0 -2 -1 1
1 -2 -1 4 3 -5 -2 -0 5 -2 1 7 17 156 9 -2 -2 1 15 2 -3 -0 -3 1 0 -2 -1 -1 -1 0 -2 -3 -2 3 0 -1 3 -7 -4 -2 -1 -1 1
-0 -1 -4 -1 2 -2 -4 -6 2 6 12 10 -6 -41 131 -11 1 -4 15 3 2 -0 0 3 3 2 3 1 -3 -1 -1 -4 1 -5 1 1 2 1 -2 -4 1 -5 -1
-0 6 3 -0 3 -1 -1 -9 -11 -6 7 27 -6 57 28 -17 -22 -3 14 3 -0 1 2 3 4 0 4 3 1 3 3 2 -3 -3 -6 1 -0 1 -0 -2 -3 -0 -3
-0 1 2 2 -3 -0 -2 -5 -11 -1 1 11 12 3 -18 -25 79 2 6 0 0 2 3 2 2 2 3 -0 -1 -0 3 -0 -3 2 -4 -5 2 -2 1 -2 1 -1 -0
1 -1 2 0 1 3 -4 -0 -5 -8 -8 -6 0 0 4 5 -14 -2 2 0 -0 4 2 -1 4 3 2 1 0 4 4 0 -2 6 7 -1 -7 1 0 -0 -2 -1 -3
2 -1 1 5 -0 -5 -1 -6 -4 -5 -6 -1 -4 -5 -5 -6 -12 2 0 -2 -2 -0 -1 1 2 2 2 0 0 -1 4 0 1 4 -2 6 9 -1 -2 3 -0 2 -4
-4 -1 5 6 -6 0 10 -4 -3 -4 -3 -5 -5 -1 -1 -4 4 -2 -2 -4 1 0 1 -3 -2 -1 0 4 -0 1 0 0 -0 2 2 12 -1 14 -5 0 2 -0 1
2 4 5 11 123 4 8 2 -4 -5 -5 -2 -4 -4 -1 -2 -4 -2 2 -1 -2 0 -0 0 3 2 -0 7 3 4 -2 1 1 1 -3 2 -1 6 12 -2 2 -1 -1
9 7 42 -0 23 8 11 1 0 0 3 2 0 4 -1 -2 -5 -3 0 -2 -2 -6 -5 1 0 -0 1 5 4 -3 -4 -0 -3 -6 1 -3 -1 3 8 2 -0 2 0
9 16 3 50 36 29 0 13 1 8 0 1 2 3 3 1 -1 -0 4 1 -2 2 -1 -4 -2 17 11 4 -0 0 1 -1 -2 0 -3 -1 5 13 7 2 1 2 0
0 1 -0 1 2 14 16 13 2 7 -4 -3 -0 -3 -7 -11 -10 -3 3 4 2 6 -7 -1 -6 -3 2 6 0 2 3 1 -2 -2 0 0 -1 5 16 5 4 1 4
-2 1 -0 -3 -7 -3 -5 -3 -10 -5 5 -5 -3 1 1 1 -0 1 2 -3 -2 -1 -2 -1 -2 1 -5 1 3 0 -4 -2 -2 -5 -1 -1 -4 -2 -2 -1 -1 0 -0
1 2 2 2 2 -0 -4 -3 -4 -2 -1 3 4 1 1 -1 2 2 3 -1 -4 -2 1 -3 4 14 11 -2 -5 -3 2 1 -4 -3 -3 -0 -4 -1 -2 -2 2 -3 -3
-1 0 0 -1 -1 1 -0 3 2 -2 1 1 -1 -2 0 0 4 2 2 1 -6 -2 -3 -0 -3 4 2 -2 1 2 -3 3 -1 1 -3 -1 -3 1 -9 -9 -2 -4 3
-1 -2 -1 1 0 2 1 1 0 0 -2 -1 3 3 4 2 4 3 2 6 6 -7 0 2 3 -4 2 3 -5 1 -2 -2 -3 -2 -1 4 0 0 3 -2 -3 -1 2
-1 -1 -1 -0 -2 -1 0 2 1 0 1 0 1 6 5 4 -1 -1 -0 3 -1 -6 -2 5 -1 0 -0 5 2 -1 1 -1 5 3 2 -3 -2 -1 -1 -6 -1 -2 -3
-1 0 -1 -1 -1 -1 -2 1 -0 0 1 2 1 -1 -1 -2 3 -7 6 3 3 0 1 3 2 5 4 4 -3 -2 -1 0 -1 -2 -4 -1 -1 3 2 -3 -8 -1 0
-1 1 2 1 0 2 2 -1 1 2 -0 2 4 0 -0 -1 -3 1 -1 -2 -2 -2 -5 -2 2 -2 -4 -0 -3 -1 -3 -3 -2 2 -2 -2 -1 -4 -2 0 0 -4 3
-0 -2 -2 -2 -1 -0 3 2 1 2 4 4 2 6 6 7 2 -0 -0 1 -1 -2 -2 -4 -2 -2 -1 0 3 1 1 4 0 4 2 -2 -0 -1 -3 -6 -5 -2 -3
1 2 -2 1 0 -1 -1 2 -0 -1 -4 -5 -4 0 1 3 1 2 1 1 -4 -4 0 1 1 1 4 -3 -2 4 1 -3 2 -0 2 -7 -2 -1 -3 -1 -5 -1 -5
2 2 2 1 1 1 0 -3 -4 -4 -6 -2 -2 -3 3 -5 -0 -1 -4 -4 -5 -3 -2 -2 0 -4 -1 -0 -1 1 2 0 -3 -2 -0 -6 -2 -0 1 -6 -3 -2 -1
2 1 -2 -1 0 1 -1 1 -1 -1 -1 -2 -3 -4 -3 1 1 -2 -3 -4 -5 -2 -2 -2 -1 -4 -5 -2 -1 -2 -0 -1 -0 -5 -3 -3 1 0 -3 -6 -1 -1 -4
-3 1 -0 -1 -0 -1 3 -1 1 1 2 -3 1 -2 -0 4 -3 -6 -5 -6 9 0 1 -0 2 4 -1 0 -2 -2 3 1 -5 -4 0 -2 1 -2 -2 -1 0 -3 -1
1 2 0 1 0 0 0 -1 0 -1 -3 1 -3 -0 0 -4 -0 -2 -2 -1 -8 -5 -8 -7 -1 -7 -5 -2 -13 2 -6 4 4 -4 -2 -3 -3 -3 -2 -5 -2 -4 -2
-3 -2 -1 0 -1 -1 -2 -3 -2 -4 -3 2 -8 -4 -3 -6 -4 -2 -6 -5 -1 3 -4 -6 -5 -0 1 -19 9 -1 -8 -2 -3 -4 -3 -0 2 -3 -4 -2 -0 -4 -4
Height
5798 5799 5801 5805 5809 5813 5816 5819 5821 5827 5826 5827 5821 5840 5841 5847 5850 5850 5856 5859 5860 5862 5865 5867 5869 5871 5872 5874 5874 5875 5875 5875 5876 5875 5875 5874 5875 5873 5871 5870 5869 5868 5868
5786 5787 5789 5790 5794 5800 5806 5807 5809 5814 5814 5815 5803 5810 5831 5837 5840 5839 5846 5851 5853 5855 5856 5859 5862 5864 5865 5867 5868 5868 5869 5871 5871 5871 5870 5869 5869 5868 5866 5865 5865 5863 5862
5774 5773 5775 5777 5780 5787 5792 5795 5798 5803 5807 5802 5803 5796 5791 5808 5828 5832 5836 5843 5846 5848 5849 5851 5854 5857 5859 5860 5861 5862 5863 5864 5865 5867 5866 5863 5862 5862 5861 5861 5860 5858 5857
5761 5760 5761 5764 5767 5773 5779 5782 5786 5791 5796 5794 5799 5786 5800 5811 5820 5824 5828 5833 5836 5839 5841 5844 5846 5849 5850 5851 5852 5854 5855 5856 5857 5859 5859 5859 5856 5854 5855 5854 5854 5853 5852
5748 5748 5750 5752 5755 5761 5766 5771 5774 5778 5782 5784 5789 5794 5799 5799 5790 5812 5819 5823 5826 5829 5832 5835 5836 5839 5841 5843 5844 5846 5846 5847 5849 5851 5850 5851 5851 5846 5847 5846 5847 5847 5847
5737 5738 5739 5742 5747 5750 5753 5758 5763 5766 5769 5772 5777 5783 5787 5791 5797 5802 5807 5812 5816 5819 5823 5825 5827 5829 5832 5832 5835 5837 5838 5837 5838 5839 5841 5841 5841 5839 5837 5839 5839 5840 5841
5729 5730 5731 5734 5737 5741 5744 5746 5752 5756 5761 5766 5768 5773 5778 5783 5787 5793 5796 5800 5805 5810 5812 5814 5816 5818 5821 5822 5823 5824 5828 5829 5829 5830 5830 5830 5829 5829 5828 5830 5831 5833 5833
5719 5720 5720 5721 5723 5728 5734 5739 5744 5748 5752 5757 5760 5763 5768 5772 5777 5782 5785 5790 5794 5798 5801 5803 5805 5807 5808 5811 5811 5813 5814 5817 5818 5819 5819 5817 5817 5817 5816 5820 5822 5823 5825
5710 5708 5708 5710 5697 5718 5725 5731 5735 5738 5742 5747 5751 5755 5759 5762 5764 5770 5774 5779 5783 5785 5788 5792 5793 5794 5796 5798 5799 5800 5802 5805 5806 5806 5807 5807 5806 5807 5810 5812 5813 5813 5816
5705 5704 5701 5707 5708 5714 5720 5724 5726 5730 5734 5739 5743 5746 5749 5751 5754 5759 5762 5764 5767 5772 5777 5779 5780 5782 5781 5784 5786 5788 5791 5794 5792 5796 5799 5797 5797 5798 5802 5804 5804 5804 5807
5705 5703 5707 5703 5709 5709 5715 5718 5721 5725 5728 5731 5734 5738 5741 5744 5748 5751 5752 5755 5757 5763 5768 5771 5769 5772 5773 5775 5775 5776 5779 5781 5782 5783 5787 5789 5789 5790 5793 5794 5795 5796 5797
5706 5707 5707 5707 5708 5710 5711 5714 5720 5722 5723 5726 5730 5735 5737 5740 5742 5744 5746 5749 5754 5756 5761 5762 5763 5763 5765 5767 5766 5768 5769 5771 5774 5774 5777 5778 5779 5781 5782 5783 5784 5786 5787
5706 5708 5708 5709 5709 5709 5710 5713 5715 5714 5718 5723 5727 5729 5733 5737 5739 5743 5747 5747 5749 5750 5753 5754 5756 5756 5756 5758 5758 5760 5762 5764 5766 5767 5767 5768 5769 5770 5770 5771 5772 5773 5775
5708 5709 5710 5711 5712 5713 5713 5716 5718 5718 5718 5721 5723 5725 5728 5731 5734 5738 5741 5743 5743 5745 5746 5747 5748 5749 5750 5750 5753 5756 5757 5757 5759 5760 5761 5761 5761 5759 5759 5760 5762 5762 5763
5707 5709 5709 5710 5711 5713 5713 5714 5716 5717 5718 5720 5722 5724 5726 5727 5729 5731 5734 5737 5739 5738 5740 5743 5742 5741 5742 5745 5747 5748 5749 5750 5751 5751 5752 5752 5751 5751 5751 5751 5751 5752 5753
5704 5706 5707 5708 5709 5710 5711 5712 5714 5715 5716 5718 5720 5722 5723 5725 5727 5729 5730 5732 5734 5735 5733 5735 5737 5737 5738 5739 5739 5740 5742 5742 5742 5743 5743 5742 5743 5743 5742 5742 5742 5742 5743
5701 5703 5705 5706 5706 5707 5707 5708 5709 5711 5712 5714 5715 5717 5719 5721 5721 5723 5724 5725 5727 5729 5728 5729 5730 5731 5732 5732 5734 5734 5734 5734 5735 5735 5736 5736 5735 5735 5734 5734 5732 5733 5734
5699 5700 5702 5703 5704 5704 5705 5706 5707 5708 5709 5711 5712 5713 5715 5717 5718 5720 5721 5721 5722 5723 5724 5724 5724 5724 5724 5725 5725 5725 5725 5726 5728 5727 5726 5726 5726 5725 5726 5726 5725 5724 5723
5697 5698 5699 5700 5701 5702 5703 5704 5704 5705 5706 5708 5710 5711 5712 5713 5715 5716 5717 5717 5717 5717 5717 5718 5719 5718 5718 5717 5717 5718 5718 5718 5717 5717 5717 5717 5716 5718 5717 5715 5715 5714 5713
5695 5696 5697 5697 5698 5698 5700 5701 5702 5703 5704 5706 5707 5707 5707 5709 5710 5710 5708 5708 5708 5708 5709 5708 5708 5709 5708 5708 5707 5707 5707 5707 5707 5707 5707 5707 5707 5706 5706 5705 5704 5703 5702
5692 5692 5693 5693 5695 5696 5696 5697 5697 5698 5699 5699 5699 5699 5700 5701 5699 5700 5699 5699 5698 5698 5698 5698 5698 5698 5698 5695 5695 5695 5694 5693 5694 5694 5693 5692 5691 5690 5690 5690 5690 5690 5688
5689 5690 5690 5690 5691 5691 5692 5693 5693 5693 5692 5692 5692 5692 5693 5692 5691 5691 5690 5690 5689 5689 5688 5688 5687 5686 5686 5686 5684 5683 5681 5680 5679 5678 5678 5677 5676 5675 5674 5674 5675 5673 5671
5686 5686 5686 5686 5686 5685 5685 5684 5684 5684 5684 5683 5683 5683 5683 5683 5682 5681 5681 5680 5679 5679 5677 5676 5675 5672 5671 5669 5668 5667 5665 5663 5662 5663 5662 5661 5660 5659 5659 5658 5657 5656 5654
5683 5683 5682 5682 5681 5680 5679 5678 5677 5676 5675 5674 5674 5673 5672 5671 5670 5668 5667 5666 5666 5664 5662 5660 5658 5657 5655 5653 5650 5649 5648 5646 5644 5644 5644 5644 5644 5642 5641 5641 5639 5637 5635
5678 5678 5677 5676 5675 5675 5674 5672 5671 5669 5667 5667 5665 5664 5661 5659 5658 5656 5654 5652 5649 5648 5645 5643 5641 5638 5635 5633 5632 5632 5631 5630 5628 5627 5626 5626 5626 5625 5623 5622 5621 5619 5618
5668 5668 5667 5666 5665 5665 5663 5661 5659 5658 5656 5654 5651 5649 5646 5644 5641 5639 5636 5635 5633 5630 5626 5624 5622 5620 5616 5614 5614 5610 5608 5609 5608 5607 5606 5607 5607 5607 5606 5606 5605 5605 5604